Location: *
(44.3925°N, 5.4708°E)
Time: 09:08:50
(UTC+00:00)

SL-08 R/B - Pass Details

Date: 18 September 2019
Orbit: 951 x 1018 km, 82.9° (Epoch: 15 October)

Event Time Altitude Azimuth Distance (km) Brightness Sun altitude
Rises 20:09:45 0° 352° (N) 3,770 8.1 -25.6°
Reaches altitude 10° 20:12:19 10° 353° (N) 2,814 7.4 -26.0°
Maximum altitude 20:18:50 83° 83° (E) 1,026 4.4 -27.0°
Enters shadow 20:19:55 64° 159° (SSE) 1,116 4.5 -27.1°
